PRAETORIAN SDA_609

Last updated on Sat Oct 11 2025 00:02:05 GMT+0000 (Coordinated Universal Time)

1 65572U 25203H 25283.40389242 .00000066 00000+0 47989-4 0 9991 2 65572 81.3030 242.1718 0007707 141.0681 219.1032 13.84767936 4139
UTC large
Height (km)
Speed (km/s)
/
Latitude / Longitude
Inclination (degrees)
Orbital Period (minutes)
Azimuth
Elevation
Range (km)
Doppler Factor

Next 0 passes for location: London (51.5072 / 0.1276)

Sorry there are no passes over London.
PRAETORIAN SDA_609